Location: Austin
(30.3000°N, 97.7500°W)
Time: 22:35:41
(UTC-06:00)

Meteor 1-27 - Pass Details

Date: 03 December 2025
Orbit: 838 x 890 km, 81.3° (Epoch: 07 December)

Event Time Altitude Azimuth Distance (km) Brightness Sun altitude
Exits shadow 05:23:01 42° 326° (NW) 1,190 4.6 -23.0°
Maximum altitude 05:24:45 62° 266° (W) 944 4.1 -22.6°
Drops below altitude 10° 05:30:13 10° 186° (S) 2,447 6.7 -21.5°
Sets 05:32:37 0° 183° (S) 3,375 7.5 -21.0°
